This demonstration page uses our WeatherBlox Daily Observations layout. Learn more.

Left ArrowRight Arrow

36.17497, -115.13722

Hourly Observations for September 10, 2015

Temp ( °F °C ) Dew Point ( °F °C ) Humidity (%) Winds ( mph kmh ) Pressure ( in mb ) Visibility ( mi km ) Precip ( " mm )
12:53 am 00:53 Clear 85 29.4 47 8.3 27 27 N 7 11 29.84 1011 10 16 N/A
1:53 am 01:53 Clear 84 28.9 46 7.8 27 27 NNW 5 7 29.84 1011 10 16 N/A
2:53 am 02:53 Clear 83 28.3 43 6.1 24 24 NNE 3 6 29.84 1011 10 16 N/A
3:53 am 03:53 Clear 82 27.8 48 8.9 31 31 N 7 11 29.85 1011 10 16 N/A
4:53 am 04:53 Clear 80 26.7 54 12.2 41 41 N 8 13 29.86 1011 10 16 N/A
5:53 am 05:53 Clear 80 26.7 54 12.2 41 41 N 6 9 29.88 1012 10 16 N/A
6:53 am 06:53 Sunny 80 26.7 54 12.2 41 41 N 6 9 29.91 1013 10 16 N/A
7:53 am 07:53 Sunny 83 28.3 57 13.9 41 41 N 5 7 29.93 1013 10 16 N/A
9:53 am 09:53 Sunny 88 31.1 55 12.8 33 33 SE 5 7 29.94 1014 10 16 N/A
10:53 am 10:53 Sunny 91 32.8 56 13.3 31 31 SSE 6 9 29.94 1014 10 16 N/A
11:53 am 11:53 Sunny 94 34.4 55 12.8 27 27 SSE 8 13 29.93 1013 10 16 N/A
12:53 pm 12:53 Sunny 96 35.6 54 12.2 24 24 ESE 8 13 29.90 1013 10 16 N/A
1:53 pm 13:53 Sunny 98 36.7 53 11.7 22 22 ESE 7 11 29.87 1012 10 16 N/A
2:53 pm 14:53 Sunny 100 37.8 52 11.1 20 20 VRB 3 6 29.84 1011 10 16 N/A
3:53 pm 15:53 Sunny 101 38.3 49 9.4 17 17 ESE 5 7 29.82 1010 10 16 N/A
4:53 pm 16:53 Sunny 101 38.3 43 6.1 14 14 N N/A 29.82 1010 10 16 N/A
5:53 pm 17:53 Sunny 100 37.8 43 6.1 14 14 S 3 6 29.82 1010 10 16 N/A
6:53 pm 18:53 Sunny 99 37.2 41 5 14 14 S 12 19 29.82 1010 10 16 N/A
7:53 pm 19:53 Clear 96 35.6 51 10.6 22 22 SW 9 15 29.83 1010 10 16 N/A
8:53 pm 20:53 Clear 94 34.4 51 10.6 23 23 S 8 13 29.85 1011 10 16 N/A
9:53 pm 21:53 Clear 92 33.3 51 10.6 25 25 S 6 9 29.85 1011 10 16 N/A
10:53 pm 22:53 Clear 90 32.2 55 12.8 31 31 S 9 15 29.86 1011 10 16 N/A
11:53 pm 23:53 Clear 86 30 54 12.2 33 33 ENE 6 9 29.87 1011 10 16 N/A

Powered by AerisWeather